sat.trackr.live / text

‹ back to catalog

STARLINK-31660

NORAD 59642 · 2024-082M

PAYLOAD ACTIVE UNKNOWN

§ Identity

Operator
Country
US
Launch date
2024-05-03
Launch site
AFETR
Launch vehicle
Mass (kg)
RCS (m²)

Purposes: comms

External: N2YO · Heavens-Above · Gunter

§ Orbital elements

Epoch: 2026-09-19T21:50:42.273600Z

Period
94.27 min
Inclination
43.0021°
Eccentricity
0.0001320
Mean motion
15.27575402 rev/d
Perigee alt
482.2 km
Apogee alt
484.0 km
Semi-major
6,861.2 km
B*
1.5284e-5
RAAN
82.5783°
Arg perigee
269.7221°
Mean anomaly
90.3479°
Rev number
13,517

§ Raw data

STARLINK-316601 59642U 24082M   26262.91021150  .00000158  00000+0  15284-4 0  99962 59642  43.0021  82.5783 0001320 269.7221  90.3479 15.27575402135173

JSON: /api/v1/satellites/59642 · /tle

For live sub-satellite position, see the globe view (requires WebGL).

§ Visibility from observer

Set your observer location to see the next 7 days of passes ≥ 10°. The values pass through the URL so the page stays shareable.

No JS? Fill the form by hand. The geolocation button needs JavaScript.